OBJECT H, 63298

Orbit data source: Space-Track

You're viewing an Uncataloged Satellite

Recently launched and/or uncataloged satellites may have evolving metadata. Metadata may include but not limited to: Owner, Maufacturer, Bus, Motor, and Mission.

OBJECT H, 63298 is a Chinese satellite in SSO that was launched on Mon, 17 Mar 2025 UTC via a GUSHENXING 1 launch vehicle from the Jiuquan Satellite Launch Center, China (JSC). Unknown objects in Earth's orbit typically refer to objects detected orbiting the Earth but have not yet been identified or cataloged. These objects could be anything from previously untracked satellites, spent rocket stages, debris from satellite collisions, or even natural meteoroids temporarily captured by Earth's gravity.

Loading next visibility...
Identifier
63298, 2025-055H
Orbit
SSO
Last TLE update
9 hours ago
Origin
Flag of CNZHWK/JIG (CN / PRC)
Manufacturer
ZHWK/HITSAT
Mission
Operational Commercial Imaging
Bus & Motor
ZK1, Unknown motor
Mass
~250 kg wet, ~250 kg dry
Launch date (UTC)
2025-03-17 (2 months ago)
Launch vehicle
GUSHENXING 1
Launch site
Jiuquan Satellite Launch Center, China (JSC)
Object type
Unknown
Shape & HBR
Box + 3 Pan, 6 m
Radar Cross Section
3.533 m², Medium (>0.1 m² and < 1m²)

Expand to show TLE details & history

TLE from 9 hours ago
0 OBJECT H
1 63298U 25055H   25128.89504190  .00020952  00000-0  11994-2 0  9993
2 63298  97.6051 263.9860 0012913 114.8832 245.3742 15.12589018  7908
Epoch: 2025-05-08T21:28Z
Definitive object data (Epoch: 2025-05-08T21:28:51.62Z)
Latitude
-0.00004°
Longitude
74.81194°
Altitude
535.109 km
Speed
7.593 km/s
True Right ascension
17h 35m 56s
True Declination
0° 00' 00"
Sunlit
Object was in full shadow at TLE epoch
Visualization TLE readout
Latitude
-29.13571°
Longitude
79.44683°
Altitude
546.341 km
Speed
7.584 km/s
Apparent Right ascension
21h 28m 27s
Apparent Declination
-60° 39' 09"
Sunlit
Object is in full shadow
Visualization observer readout
Local Sidereal Time
15:01:34
Azimuth
142.387° SSE
Elevation
-37.107°
Doppler factor
1
Orbital elements
Apogee altitude
534.207 km
Perigee altitude
516.378 km
Semi-major axis
6,903.429 km
Eccentricity
0.0012913
Inclination
97.6051°
RAAN
263.986°
Arg. of periapsis
114.8832°
True anomaly
245.23978°
Mean anomaly
245.3742°
Eccentric anomaly
245.30698°
Mean motion
3.78395 °/min
BSTAR
0.0011994
Orbital period
95.14 mins
Loading maneuver chart data...
Loading SW <> Apogee altitude chart data...
Loading historical data...
Loading historical data...
Loading historical data...
Loading historical data...
Loading historical data...
Loading historical data...
Loading historical data...

OBJECT H Visibility forecast

Observer location: undefined°, undefined°

Span
Click to sort rows by Start time (UTC) header in descending order
Start Az.
Max El. time (UTC)
Max El. Az.
Max El.
End time (UTC)
End Az.
6 mins2025-05-09 08:43:39.913Z148.579° SSE2025-05-09 08:46:39.913Z65.271° ENE38.878°2025-05-09 08:49:39.913Z359.438° N
5 mins2025-05-09 21:52:39.913Z11.912° NNE2025-05-09 21:54:39.913Z217.524° SW44.974°2025-05-09 21:57:39.913Z193.645° SSW
|